Total_Precipitation_Accumulation
0.08 0.15 0.37 0.60 1.04 1.80 1.66 1.08 0.56 0.34 0.33 0.41 0.49 0.51 0.56 0.58 0.81 1.37 1.18 0.89 0.59 0.65 0.75 0.92 1.08 0.97 0.93 0.99 1.00 1.01 1.08 1.07 1.03 1.01 1.03 1.03 1.06 1.03 1.06 1.05 0.99 1.00 1.00 0.89 0.81 0.72 0.66 0.62 0.58
0.11 0.24 0.46 0.66 1.37 1.85 1.39 1.19 0.50 0.30 0.25 0.35 0.42 0.47 0.53 0.51 0.39 0.60 0.95 0.86 0.58 0.58 0.59 0.61 0.80 0.81 0.83 0.94 0.99 1.13 1.14 1.07 0.98 0.98 0.96 0.97 1.09 1.09 1.02 0.94 0.89 0.92 0.85 0.77 0.67 0.59 0.52 0.49 0.47
0.15 0.31 0.46 0.66 1.00 1.11 0.77 0.62 0.32 0.28 0.28 0.33 0.40 0.42 0.47 0.63 0.50 0.65 0.77 0.61 0.53 0.50 0.55 0.64 0.78 0.78 0.85 0.91 0.99 1.05 0.96 0.90 0.94 0.96 0.97 1.04 1.05 0.99 0.93 0.88 0.85 0.84 0.74 0.65 0.57 0.53 0.49 0.47 0.47
0.15 0.26 0.36 0.49 0.50 0.54 0.46 0.33 0.23 0.22 0.24 0.32 0.36 0.39 0.54 0.59 0.46 0.63 0.68 0.61 0.46 0.44 0.51 0.59 0.71 0.76 0.78 0.77 0.81 0.91 0.92 0.87 0.90 0.89 0.92 0.92 0.94 0.96 0.87 0.79 0.77 0.75 0.71 0.63 0.58 0.52 0.49 0.50 0.54
0.14 0.28 0.38 0.38 0.32 0.41 0.39 0.30 0.24 0.19 0.18 0.33 0.44 0.61 0.77 0.68 0.49 0.66 0.69 0.66 0.52 0.48 0.53 0.55 0.73 0.79 0.75 0.71 0.73 0.76 0.83 0.85 0.85 0.83 0.82 0.83 0.84 0.86 0.79 0.72 0.68 0.68 0.62 0.56 0.56 0.53 0.53 0.57 0.60
0.15 0.28 0.27 0.25 0.25 0.32 0.30 0.22 0.19 0.20 0.25 0.36 0.53 0.79 1.02 0.93 0.67 0.68 0.73 0.64 0.64 0.67 0.68 0.67 0.82 0.86 0.82 0.75 0.74 0.70 0.70 0.71 0.69 0.68 0.70 0.71 0.67 0.71 0.75 0.75 0.65 0.60 0.54 0.51 0.52 0.52 0.55 0.62 0.66
0.13 0.19 0.17 0.15 0.18 0.26 0.25 0.19 0.17 0.15 0.23 0.40 0.49 0.83 1.17 1.32 0.97 0.78 0.84 0.91 1.00 0.93 0.81 0.79 0.88 0.93 0.86 0.91 0.84 0.75 0.68 0.67 0.66 0.64 0.67 0.65 0.60 0.60 0.65 0.76 0.72 0.58 0.56 0.57 0.58 0.58 0.60 0.64 0.71
0.05 0.09 0.13 0.13 0.11 0.19 0.21 0.19 0.16 0.16 0.21 0.34 0.45 0.69 1.13 1.13 0.86 0.87 1.18 1.30 1.50 1.40 1.17 1.05 0.99 0.91 0.86 0.85 0.86 0.82 0.75 0.70 0.69 0.66 0.62 0.67 0.65 0.61 0.69 0.77 0.78 0.71 0.70 0.79 0.77 0.75 0.73 0.70 0.70
0.04 0.06 0.10 0.09 0.08 0.11 0.13 0.15 0.15 0.14 0.17 0.35 0.51 0.65 0.88 0.82 0.78 0.88 1.48 1.68 1.75 1.66 1.53 1.29 1.07 0.98 0.96 0.83 0.78 0.89 0.88 0.85 0.84 0.82 0.78 0.90 1.01 0.87 0.93 0.91 1.04 1.04 1.00 1.10 1.13 1.13 1.07 0.96 0.86
0.04 0.04 0.05 0.04 0.04 0.06 0.10 0.15 0.15 0.17 0.31 0.66 0.90 0.90 0.88 0.85 0.99 1.21 1.63 1.67 1.83 1.90 1.66 1.50 1.29 1.07 0.94 0.82 0.94 1.19 1.01 1.02 1.10 1.17 1.17 1.39 1.59 1.55 1.04 1.12 1.43 1.55 1.59 1.64 1.69 1.74 1.49 1.24 1.16
0.02 0.03 0.02 0.03 0.02 0.04 0.07 0.13 0.15 0.18 0.54 0.97 1.28 1.11 0.99 1.08 1.21 1.50 1.92 2.15 2.11 2.20 1.96 1.77 1.51 1.23 1.06 1.11 1.00 1.15 1.33 1.42 1.45 1.44 1.47 1.64 1.53 1.30 1.16 1.31 1.62 1.87 1.94 1.92 2.15 2.16 1.81 1.85 2.08
0.02 0.02 0.02 0.02 0.02 0.03 0.06 0.10 0.15 0.25 0.50 0.69 0.87 1.03 1.14 1.31 1.59 1.86 2.02 2.27 2.27 2.32 2.20 2.18 1.77 1.60 1.64 1.44 1.17 1.09 1.13 1.26 1.46 1.69 1.66 1.77 1.98 1.86 1.77 1.87 1.92 2.05 2.27 2.65 2.55 2.66 2.51 2.47 2.38
0.01 0.02 0.02 0.01 0.02 0.04 0.06 0.08 0.18 0.33 0.43 0.54 0.85 1.20 1.45 1.49 1.82 2.14 2.26 2.54 2.38 2.33 2.35 2.35 2.14 1.98 2.06 1.83 1.61 1.35 1.46 1.49 1.56 1.69 1.84 1.80 2.08 2.27 2.24 2.20 2.16 2.05 2.15 2.35 2.56 2.58 2.92 3.05 2.67
0.01 0.01 0.01 0.02 0.03 0.05 0.08 0.14 0.24 0.38 0.54 0.72 0.95 1.22 1.53 1.79 2.00 2.13 2.52 2.72 2.72 2.62 2.68 2.47 2.37 2.36 2.37 2.29 2.23 2.10 1.83 1.91 1.82 1.77 1.79 1.85 2.11 2.41 2.54 2.40 2.36 2.21 2.18 2.34 2.53 2.67 3.17 3.17 2.97
0.01 0.02 0.04 0.05 0.06 0.08 0.12 0.30 0.45 0.56 0.63 0.79 0.99 1.14 1.47 1.99 2.26 2.28 2.57 2.70 2.64 2.98 3.03 3.02 2.97 3.09 3.01 2.84 2.72 2.50 2.30 2.15 2.11 2.17 2.19 2.09 2.17 2.44 2.47 2.29 2.19 2.24 2.39 2.58 2.58 2.72 3.00 2.75 2.75
0.03 0.09 0.12 0.12 0.10 0.11 0.18 0.50 0.61 0.68 0.68 0.87 1.07 1.24 1.54 1.84 2.19 2.34 2.62 2.80 2.85 3.20 3.37 3.55 3.53 3.54 3.37 3.35 3.28 3.03 2.79 2.61 2.44 2.38 2.43 2.28 2.26 2.34 2.53 2.32 2.15 2.47 2.52 2.64 2.91 3.03 3.03 2.96 2.96
0.06 0.07 0.09 0.12 0.10 0.09 0.16 0.42 0.53 0.70 0.92 1.08 1.26 1.41 1.46 1.75 2.07 2.43 2.73 3.07 3.33 3.64 3.90 4.10 4.09 3.94 3.68 3.71 3.67 3.52 3.37 3.03 2.67 2.51 2.43 2.29 2.27 2.39 2.68 2.63 2.71 2.76 2.83 2.87 2.74 3.13 3.15 3.01 3.04
0.05 0.07 0.08 0.12 0.11 0.11 0.22 0.47 0.59 0.76 1.00 1.05 1.31 1.47 1.55 1.66 2.11 2.56 2.77 3.18 3.66 4.14 4.54 4.39 4.29 4.47 4.35 4.17 4.02 3.75 3.31 2.89 2.75 2.71 2.51 2.37 2.39 2.49 2.90 2.75 2.76 2.81 2.94 3.00 2.97 3.07 3.08 2.81 2.80
0.05 0.07 0.10 0.13 0.12 0.15 0.28 0.55 0.80 0.90 1.17 1.13 1.16 1.31 1.47 1.61 1.91 2.34 2.64 3.20 3.81 4.19 4.57 4.73 4.74 4.63 4.43 4.04 3.71 3.46 3.24 3.05 2.80 2.63 2.57 2.45 2.33 2.48 2.89 2.76 2.99 2.94 2.90 2.91 2.96 3.06 2.96 2.60 2.76
0.06 0.08 0.10 0.15 0.16 0.21 0.39 0.62 0.90 0.91 0.99 1.04 0.96 1.00 1.19 1.56 1.81 2.34 2.64 2.85 3.32 3.84 4.29 4.59 4.74 4.62 4.23 3.83 3.62 3.48 3.42 3.04 2.74 2.71 2.79 2.65 2.65 2.69 2.72 2.89 2.86 2.92 3.01 2.93 2.90 2.99 2.80 2.42 2.61
0.08 0.08 0.10 0.11 0.14 0.28 0.43 0.83 1.09 0.98 0.93 0.95 0.94 0.99 1.17 1.64 2.08 2.34 2.53 2.70 2.98 3.37 3.68 3.80 3.95 3.92 3.76 3.78 3.78 3.70 3.65 3.19 3.07 3.06 3.05 2.87 2.87 2.89 2.89 2.86 2.79 2.78 2.61 2.64 2.67 2.69 2.70 2.59 2.50
0.09 0.08 0.07 0.08 0.15 0.36 0.44 0.94 1.35 1.18 1.03 1.08 1.13 1.08 1.35 1.68 1.72 1.87 2.18 2.51 2.68 2.91 3.26 3.49 3.55 3.50 3.41 3.51 3.56 3.42 3.21 3.04 3.14 3.41 3.36 3.10 2.88 2.73 2.54 2.48 2.60 2.60 2.43 2.43 2.12 2.25 2.44 2.44 2.27
0.08 0.08 0.08 0.11 0.17 0.35 0.46 0.72 1.25 1.28 1.26 1.15 1.17 1.28 1.49 1.52 1.46 1.57 1.78 2.10 2.21 2.52 2.81 3.06 3.32 3.41 3.36 3.41 3.34 3.35 3.23 3.21 3.24 3.19 3.18 2.96 2.77 2.45 2.13 2.14 2.28 2.28 2.19 2.10 2.01 2.17 2.07 2.00 2.00
0.06 0.08 0.14 0.21 0.33 0.67 0.55 0.57 1.03 1.20 1.04 0.98 1.08 1.11 1.30 1.31 1.31 1.50 1.65 1.88 2.01 2.16 2.28 2.41 2.63 2.92 3.09 3.14 3.12 3.15 3.09 3.07 2.98 2.88 2.74 2.55 2.39 2.12 1.85 1.76 1.94 2.07 2.06 2.01 1.99 2.07 1.97 1.98 2.10
0.07 0.11 0.42 0.77 1.00 1.05 0.58 0.62 1.07 0.94 0.74 0.76 0.95 1.00 1.06 1.04 1.02 1.24 1.37 1.49 1.62 1.75 1.85 1.97 2.17 2.51 2.68 2.68 2.67 2.78 2.83 2.85 2.76 2.71 2.56 2.36 2.12 1.82 1.76 1.78 1.87 1.92 1.96 1.85 1.92 1.99 2.01 2.13 2.19
0.09 0.11 0.37 0.66 0.79 0.85 0.70 1.03 1.47 0.98 0.76 0.81 0.86 0.86 0.85 0.81 0.79 0.94 1.15 1.37 1.43 1.46 1.59 1.73 1.95 2.19 2.30 2.25 2.38 2.59 2.66 2.76 2.64 2.67 2.43 2.18 1.96 1.85 1.90 1.89 1.78 1.72 1.81 1.72 1.97 1.91 1.95 2.12 2.15
0.10 0.10 0.16 0.30 0.40 0.63 0.88 1.16 1.20 0.75 0.66 0.75 0.77 0.79 0.90 0.84 0.76 0.83 0.92 1.09 1.14 1.20 1.32 1.47 1.82 2.10 2.21 2.24 2.38 2.49 2.56 2.55 2.46 2.37 2.21 1.99 1.98 1.92 2.02 1.99 1.89 1.79 1.85 1.97 2.22 2.16 2.13 2.32 2.26
0.11 0.12 0.17 0.24 0.41 0.64 0.86 1.15 1.28 0.90 0.73 0.55 0.50 0.55 0.56 0.55 0.56 0.64 0.69 0.80 0.92 1.12 1.38 1.53 1.66 1.96 2.08 2.09 2.18 2.21 2.38 2.34 2.23 2.16 2.00 1.84 1.74 1.78 1.94 2.07 2.01 1.94 1.97 2.12 2.28 2.29 2.45 2.57 2.51
0.13 0.12 0.15 0.19 0.25 0.45 0.87 1.08 0.86 0.71 0.60 0.55 0.53 0.57 0.49 0.44 0.46 0.52 0.65 0.80 0.97 1.12 1.29 1.37 1.41 1.57 1.71 1.81 1.99 1.98 1.97 2.07 2.14 2.01 1.79 1.71 1.68 1.72 1.80 2.00 2.07 2.02 2.06 2.16 2.21 2.19 2.48 2.58 2.56
0.15 0.12 0.14 0.18 0.19 0.28 0.50 0.71 0.56 0.62 0.62 0.53 0.56 0.62 0.62 0.58 0.52 0.56 0.74 0.90 1.03 1.18 1.21 1.20 1.25 1.38 1.53 1.71 1.90 1.98 1.99 2.03 2.03 1.90 1.72 1.66 1.67 1.75 1.83 1.96 1.97 1.89 1.90 2.08 2.12 2.19 2.44 2.55 2.45